Retour au catalogue

ARIANE 2 DEB

LostGTO
NORAD 28570·DEBRIS·🇫🇷 France

Lancé Jan 27, 1989 depuis Guiana Space Centre

Loading…

TLE

PériméSource: Space-Track

Époque: Oct 2, 2025, 11:35 UTC

1 28570U 89006AM  25275.48303373  .00000467  00000-0  16410-1 0  9997
2 28570   7.1152 245.1245 7087793 122.5218   9.6263  2.29684754183404

Suivez ARIANE 2 DEB en temps réel avec AllMySat

Download on the App Store